KI4AMD-13 Weather Reports


time (UTC)temp
C
wind
direction
speed
KPH
gust
KPH
rain 1hr
cm
rain 24hr
cm
rain mn
cm
humidity
%
barometer
mb
20260508160058 -17 0 0.0 6.4 0.00 0.00 0.00 1017.8
20260508154612 -17 236 0.0 3.2 0.00 0.03 0.00 1017.9
20260508153059 -17 224 0.0 1.6 0.00 0.03 0.00 1018.3
20260508151556 -17 0 0.0 3.2 0.00 0.03 0.00 1018.4
20260508150110 -17 0 1.6 4.8 0.00 0.03 0.00 1018.3
20260508144602 -17 0 0.0 3.2 0.00 0.03 0.00 1018.3
20260508143126 -17 0 0.0 3.2 0.00 0.03 0.00 1018.2
20260508141606 -17 0 0.0 0.0 0.00 0.03 0.00 1018.2
20260508140121 -17 0 0.0 3.2 0.00 0.03 0.00 1018.4
20260508134600 -17 0 0.0 0.0 0.00 0.03 0.00 1018.2
20260508133107 -17 0 0.0 0.0 0.00 0.03 0.00 1018.0
20260508131602 -17 0.0 0.0 0.00 0.03 0.00 1017.9
20260508124558 -17 0.0 0.0 0.00 0.03 0.00 1018.0
20260508123058 -17 0.0 0.0 0.00 0.03 0.00 1018.0
20260508121559 -17 0.0 0.0 0.00 0.03 0.00 1018.0
20260508120105 -17 0.0 0.0 0.00 0.03 0.00 1017.9
20260508114556 -17 0.0 0.0 0.00 0.03 0.00 1017.7
20260508113058 -17 0.0 0.0 0.00 0.03 0.00 1017.5
20260508111605 -17 0.0 0.0 0.00 0.03 0.00 1017.3
20260508110108 -17 0.0 0.0 0.00 0.03 0.00 1017.3
20260508104607 -17 0.0 0.0 0.00 0.03 0.00 1017.1
20260508103101 -17 0.0 0.0 0.00 0.03 0.00 1017.0
20260508101557 -17 0.0 0.0 0.00 0.03 0.00 1017.0
20260508100103 -17 0.0 0.0 0.00 0.03 0.00 1016.9
20260508094559 -17 0.0 0.0 0.00 0.03 0.00 1016.8
20260508093058 -17 0.0 0.0 0.00 0.03 0.00 1016.7
20260508091609 -17 0.0 0.0 0.00 0.03 0.00 1016.7
20260508090104 -17 0.0 0.0 0.00 0.03 0.00 1016.5
20260508084613 -17 0.0 0.0 0.00 0.03 0.00 1016.6
20260508083108 -17 0.0 0.0 0.00 0.03 0.00 1016.5
20260508081556 -17 0.0 0.0 0.00 0.03 0.00 1016.4
20260508080110 -17 0.0 0.0 0.00 0.03 0.00 1016.4
20260508074609 -17 0.0 0.0 0.00 0.03 0.00 1016.3
20260508073101 -17 0.0 0.0 0.00 0.03 0.00 1016.2
20260508071558 -17 0.0 0.0 0.00 0.03 0.00 1016.1
20260508064600 -17 0.0 0.0 0.00 0.03 0.00 1016.2
20260508063057 -17 0.0 0.0 0.00 0.03 0.00 1016.0
20260508061558 -17 0 0.0 0.0 0.00 0.03 0.00 1016.0
20260508060100 -17 0 0.0 0.0 0.00 0.03 0.00 1016.2
20260508054600 -17 0 0.0 0.0 0.00 0.03 0.00 1016.3
20260508053105 -17 0 0.0 0.0 0.00 0.03 0.00 1016.5
20260508051610 -17 0 0.0 0.0 0.00 0.03 0.00 1016.3
20260508050116 -17 0 0.0 0.0 0.00 0.03 0.00 1016.1
20260508044558 -17 0 0.0 0.0 0.00 0.03 0.00 1015.9
20260508043104 -17 0 0.0 0.0 0.00 0.03 0.00 1016.0
20260508041602 -17 0 0.0 0.0 0.00 0.03 0.00 1015.6
20260508034556 -17 0 0.0 0.0 0.00 0.03 0.03 1015.7
20260508033056 -17 0 0.0 0.0 0.00 0.03 0.03 1015.5
20260508031559 -17 0 0.0 0.0 0.00 0.03 0.03 1015.5
20260508030100 -17 0 0.0 0.0 0.00 0.03 0.03 1015.3
20260508024558 -17 0 0.0 0.0 0.00 0.53 0.03 1015.2
20260508023100 -17 0 0.0 0.0 0.00 0.53 0.03 1015.2
20260508021558 -17 0 0.0 0.0 0.00 0.53 0.03 1015.0
20260508020101 -17 0 0.0 0.0 0.00 0.53 0.03 1014.7
20260508014557 -17 0 0.0 0.0 0.00 0.79 0.03 1014.5
20260508013058 -17 0 0.0 0.0 0.00 0.79 0.03 1014.3
20260508011557 -17 0 0.0 0.0 0.00 0.79 0.03 1014.0
20260508010100 -17 0 0.0 0.0 0.00 0.79 0.03 1013.9
20260508004602 -17 0 0.0 0.0 0.00 0.89 0.03 1013.6
20260508003058 -17 0 0.0 0.0 0.00 0.89 0.03 1013.4
20260508001600 -17 0 0.0 0.0 0.00 0.89 0.03 1013.4
20260507234602 -17 0 0.0 0.0 0.00 0.89 0.03 1013.6
20260507233117 -17 0 0.0 1.6 0.00 0.89 0.03 1013.5
20260507231605 -17 255 0.0 1.6 0.00 0.89 0.03 1013.5
20260507230058 -17 257 0.0 1.6 0.00 0.89 0.03 1013.5
20260507224559 -17 226 0.0 1.6 0.00 0.89 0.03 1013.4
20260507223113 -17 0 0.0 1.6 0.00 0.89 0.03 1013.1
20260507221558 -17 0 0.0 1.6 0.00 0.89 0.03 1013.1
20260507220058 -17 244 0.0 3.2 0.00 0.89 0.03 1013.0
20260507214604 -17 208 0.0 4.8 0.00 0.89 0.03 1012.9
20260507213058 -17 0 1.6 6.4 0.00 0.89 0.03 1012.8
20260507211603 -17 167 0.0 3.2 0.00 0.89 0.03 1012.7
20260507210114 -17 162 0.0 1.6 0.00 0.89 0.03 1012.5
20260507204601 -17 0 0.0 0.0 0.00 0.89 0.03 1012.6
20260507203106 -17 0 0.0 0.0 0.00 0.89 0.03 1012.8
20260507201600 -17 0 0.0 1.6 0.00 0.89 0.03 1012.9
20260507200105 -17 0 0.0 1.6 0.00 0.89 0.03 1012.8
20260507194600 -17 0 0.0 0.0 0.00 0.89 0.03 1012.8
20260507193055 -17 0 0.0 0.0 0.00 0.89 0.03 1012.8
20260507191600 -17 0 0.0 0.0 0.00 0.89 0.03 1013.1
20260507190107 -17 224 0.0 1.6 0.00 0.89 0.03 1013.2
20260507184557 -17 0 0.0 3.2 0.00 0.89 0.03 1013.2
20260507183114 -17 0 0.0 0.0 0.00 0.89 0.03 1013.2
20260507181601 -17 0 0.0 1.6 0.00 0.89 0.03 1013.1
20260507180059 -17 0 0.0 1.6 0.00 0.89 0.03 1013.0
20260507174603 -17 254 0.0 1.6 0.00 0.89 0.03 1012.9
20260507173115 -17 248 0.0 1.6 0.00 0.89 0.03 1012.6
20260507171559 -17 0 0.0 1.6 0.00 0.89 0.03 1012.8
20260507170059 -17 0 0.0 3.2 0.00 0.89 0.03 1012.5
20260507164633 -17 0 0.0 1.6 0.00 0.89 0.03 1012.5
20260507163101 -17 0 0.0 1.6 0.00 0.89 0.03 1012.8
20260507161603 -17 0 0.0 3.2 0.00 0.89 0.03 1012.9